TimeEDT,TemperatureF,Dew PointF,Humidity,Sea Level PressureIn,VisibilityMPH,Wind Direction,Wind SpeedMPH,Gust SpeedMPH,PrecipitationIn,Events,Conditions,WindDirDegrees,DateUTC
12:00 AM,46.4,41.0,81,29.40,15.0,East,6.9,-,N/A,,Overcast,100,2012-10-31 04:00:00
1:00 AM,44.6,41.0,87,29.40,15.0,ESE,5.8,-,N/A,,Overcast,110,2012-10-31 05:00:00
1:44 AM,44.6,-9999,N/A,-9999,15.0,SSE,4.6,-,N/A,Rain,Light Rain,150,2012-10-31 05:44:00
2:00 AM,44,42,89,29.40,15,SE,3.5,,,Rain,Light Rain,130,2012-10-31 06:00:00
2:00 AM,44.6,42.8,93,29.40,15.0,ESE,4.6,-,N/A,Rain,Light Rain,120,2012-10-31 06:00:00
2:36 AM,44.6,-9999,N/A,-9999,15.0,Calm,Calm,-,N/A,,Overcast,0,2012-10-31 06:36:00
3:00 AM,44.6,41.0,87,29.40,15.0,Calm,Calm,-,N/A,,Overcast,0,2012-10-31 07:00:00
4:00 AM,44.6,41.0,87,29.40,15.0,NNE,3.5,-,N/A,,Overcast,20,2012-10-31 08:00:00
4:25 AM,42.8,-9999,N/A,-9999,15.0,NNE,3.5,-,N/A,Rain,Light Rain,20,2012-10-31 08:25:00
5:00 AM,44.6,42.8,93,29.41,15.0,NNE,3.5,-,N/A,Rain,Light Rain,30,2012-10-31 09:00:00
6:00 AM,44.6,41.0,87,29.41,15.0,North,4.6,-,N/A,Rain,Light Rain,10,2012-10-31 10:00:00
7:00 AM,44.6,41.0,87,29.42,10.0,NNE,4.6,-,N/A,Rain,Light Rain,30,2012-10-31 11:00:00
8:00 AM,44,42,90,29.42,10,NNE,4.6,,,Rain,Light Rain,20,2012-10-31 12:00:00
8:00 AM,44.6,42.8,93,29.42,10.0,NNE,4.6,-,N/A,Rain,Light Rain,20,2012-10-31 12:00:00
9:00 AM,44.6,42.8,93,29.43,12.0,NNE,4.6,-,N/A,Rain,Light Rain,20,2012-10-31 13:00:00
10:00 AM,44.6,42.8,93,29.43,15.0,North,5.8,-,N/A,Rain,Light Rain,10,2012-10-31 14:00:00
11:00 AM,44.6,41.0,87,29.43,12.0,North,4.6,-,N/A,Rain,Light Rain,10,2012-10-31 15:00:00
12:00 PM,44.6,41.0,87,29.43,12.0,North,4.6,-,N/A,Rain,Light Rain,360,2012-10-31 16:00:00
1:00 PM,44.6,41.0,87,29.43,12.0,NW,3.5,-,N/A,Rain,Light Rain,320,2012-10-31 17:00:00
2:00 PM,46,41,78,29.43,12,Calm,Calm,,,Rain,Light Rain,,2012-10-31 18:00:00
2:00 PM,46.4,41.0,81,29.43,12.0,Calm,Calm,-,N/A,Rain,Light Rain,0,2012-10-31 18:00:00
3:00 PM,46.4,42.8,87,29.42,12.0,West,2.3,-,N/A,Rain,Light Rain,280,2012-10-31 19:00:00
4:00 PM,46.4,42.8,87,29.43,12.0,West,3.5,-,N/A,Rain,Light Rain,280,2012-10-31 20:00:00
5:00 PM,46.4,44.6,93,29.43,12.0,WSW,3.5,-,N/A,Rain,Light Rain,240,2012-10-31 21:00:00
6:00 PM,46.4,42.8,87,29.43,12.0,WSW,4.6,-,N/A,Rain,Light Rain,250,2012-10-31 22:00:00
7:00 PM,46.4,44.6,93,29.43,10.0,SSW,4.6,-,N/A,Rain,Light Rain,210,2012-10-31 23:00:00
7:27 PM,46.4,-9999,N/A,-9999,10.0,SW,4.6,-,N/A,Rain,Light Rain,220,2012-10-31 23:27:00
8:00 PM,47,45,91,29.44,10,West,8.1,,,Rain,Light Rain,270,2012-11-01 00:00:00
8:00 PM,46.4,44.6,93,29.44,10.0,West,8.1,-,N/A,Rain,Light Rain,280,2012-11-01 00:00:00
9:00 PM,46.4,42.8,87,29.44,12.0,NW,10.4,-,N/A,Rain,Light Rain,310,2012-11-01 01:00:00
9:23 PM,46.4,-9999,N/A,-9999,12.0,NW,12.7,-,N/A,Rain,Light Rain,310,2012-11-01 01:23:00
10:00 PM,44.6,42.8,93,29.45,12.0,WNW,9.2,-,N/A,Rain,Light Rain,290,2012-11-01 02:00:00
11:00 PM,44.6,41.0,87,29.45,12.0,WNW,9.2,-,N/A,Rain,Light Rain,290,2012-11-01 03:00:00